{"data":{"norad_id":66726,"intl_designator":"2025-276BN","name":"FLOCK 4H-23","alt_names":[],"object_type":"PAYLOAD","status":"ACTIVE","operator":null,"country":"US","launch_date":"2025-11-28","launch_site_code":"AFWTR","launch_vehicle":null,"mission":null,"orbit_class":"UNKNOWN","rcs_meters":null,"size_class":null,"mass_kg":null,"dimensions":null,"purposes":["earth_obs"],"wikipedia_slug":null,"has_3d_model":false,"image_url":null,"decayed_at":null,"tle_current":{"epoch":"2026-05-25T02:45:42.477408Z","epoch_age_seconds":58390,"freshness":"FRESH","line1":"1 66726U 25276BN  26145.11507497  .00005698  00000+0  27195-3 0  9995","line2":"2 66726  97.4244 219.0815 0006090  83.5759 276.6169 15.19435619 26916","mean_motion":15.19435619,"eccentricity":0.000609,"inclination_deg":97.4244,"raan_deg":219.0815,"arg_perigee_deg":83.5759,"mean_anomaly_deg":276.6169,"bstar":0.00027195,"rev_number":2691,"period_min":94.772031272225,"perigee_km":503.35178975585,"apogee_km":511.73855063915,"semimajor_km":6885.6821701975,"source":"CELESTRAK","updated_at":"2026-05-25T13:38:13.370457Z"}}}